Погода в Горохово

Россия / Иркутская область     52°48′17″N   104°01′16″E
темп.,
°C
ветер,
м/с
пор.,
м/с
влажн.,
%
обл.,
%
осадки,
мм/ч
давл.,
гПа
погр.,
м
8 марта, пн
пн823:00−6зюз0188100 0.0 101721
02:00−6ссв129399 0.0 101922
05:00−9ссв019714 0.0 102021
08:00−5ссз4128545 0.2 1025863
11:00−5сз4874100 0.0 1026881
14:00−3сз357183 0.0 1027816
17:00−3сз12700 0.0 1026698
20:00−9вюв128243 0.0 102821
9 марта, вт
вт923:00−10в369097 0.0 1025134
02:00−9вюв4108386 0.0 1022213
05:00−9вюв5128489 0.0 1019298
08:00−10вюв398945 0.0 1019212
11:00−4юв35879 0.0 1017321
14:00−1сз248654 0.0 1019520
17:00−1юз2390100 0.0 1020264
20:00−4ююв119284 0.0 102325
10 марта, ср
ср1023:00−5зсз128893 0.0 102721
02:00−8ссз228889 0.0 103021
05:00−12ююз008839 0.0 103121
08:00−11вюв128462 0.0 103121
11:00−5вюв487625 0.0 1027399
14:00−1юв488313 0.0 1024561
17:000юв47870 0.0 1021409
20:00−4юв39890 0.0 1023205
11 марта, чт
чт1123:00−6юв388996 0.0 1024173
02:00−8юв239253 0.0 102444
05:00−10вюв22940 0.0 102421
08:00−10вюв24930 0.0 102494
11:00−3юв48820 0.0 1020293
14:00+2юв511820 0.0 1017385
17:00+2юв5117817 0.0 1016357
20:00−2юв4118512 0.0 1018246
12 марта, пт
пт1223:00−4юв389034 0.0 1019176
02:00−6вюв249133 0.0 101887
05:00−8вюв129065 0.0 101821
08:00−8зсз129380 0.0 102041
11:00−3зсз4888100 0.0 1022469
14:000сз4789100 0.3 1023644
17:00+1ссв018091 0.0 1022590
20:00−4юв239262 0.0 102228